7 * 24
多渠道服务支持
STARLINK-36313(NORAD编号68156)是SpaceX星链星座中的一颗低轨互联网通信卫星,隶属于星链全球组网项目,该项目计划在近地轨道部署超4.2万颗卫星,为全球提供高速低时延卫星互联网服务。 2026年3月底,这颗卫星在约560公里高度的近地轨道突然解体,SpaceX证实已与其失去联系。跟踪机构LeoLabs分析,解体源于卫星内部能源异常,而非太空碎片碰撞。产生的数十块碎片大部分会在数周内再入大气层烧毁,目前评估对国际空间站及阿尔忒弥斯二号任务风险较低,但此次事件再次引发了对低轨星座太空碎片风险的讨论。
美国
(US)
| 数据来源 | 国际轨道数据 |
| 星历时间: | 2026-05-24T09:25:04+0800 1天前 查看轨道信息 |
| 半长轴: | 6843.681km |
| 偏心率: | 0.0001508 |
| 轨道倾角: | 97.284° |
| 近地点辐角 | 91.419° |
| 升交点赤经 | 165.669° |
| 平近点角 | 268.722° |
| 近地点: | 464.511km |
| 远地点: | 466.577km |
| 周期: | 93.906分钟 |
| 每日圈数: | 15.334448 |